TimeCDT,TemperatureF,Dew PointF,Humidity,Sea Level PressureIn,VisibilityMPH,Wind Direction,Wind SpeedMPH,Gust SpeedMPH,PrecipitationIn,Events,Conditions,WindDirDegrees,DateUTC
12:15 AM,35.2,28.2,76,30.15,10.0,WNW,8.1,-,N/A,,Clear,290,2014-04-08 05:15:00
12:35 AM,36.0,28.9,76,30.16,10.0,West,9.2,-,N/A,,Clear,280,2014-04-08 05:35:00
12:55 AM,35.1,28.6,77,30.17,10.0,West,6.9,-,N/A,,Clear,280,2014-04-08 05:55:00
1:15 AM,35.1,28.6,77,30.17,10.0,West,8.1,-,N/A,,Clear,280,2014-04-08 06:15:00
1:35 AM,34.2,28.0,78,30.17,10.0,West,8.1,-,N/A,,Clear,280,2014-04-08 06:35:00
1:55 AM,35.6,27.7,73,30.17,10.0,WNW,9.2,-,N/A,,Clear,290,2014-04-08 06:55:00
2:15 AM,34.2,27.7,77,30.18,10.0,WNW,8.1,-,N/A,,Clear,290,2014-04-08 07:15:00
2:35 AM,34.2,27.5,77,30.18,10.0,WNW,9.2,-,N/A,,Clear,290,2014-04-08 07:35:00
2:55 AM,32.0,27.0,82,30.18,10.0,West,9.2,-,N/A,,Clear,270,2014-04-08 07:55:00
3:15 AM,31.8,26.6,81,30.17,10.0,West,8.1,-,N/A,,Clear,270,2014-04-08 08:15:00
3:35 AM,31.1,26.4,83,30.17,10.0,West,9.2,-,N/A,,Clear,270,2014-04-08 08:35:00
3:55 AM,31.8,26.6,81,30.17,10.0,West,8.1,-,N/A,,Clear,280,2014-04-08 08:55:00
4:15 AM,31.1,25.7,80,30.17,10.0,West,6.9,-,N/A,,Clear,280,2014-04-08 09:15:00
4:35 AM,30.0,25.5,83,30.17,10.0,West,9.2,-,N/A,,Clear,280,2014-04-08 09:35:00
4:55 AM,29.1,25.2,85,30.17,10.0,West,9.2,-,N/A,,Clear,280,2014-04-08 09:55:00
5:15 AM,29.3,25.3,85,30.17,10.0,West,9.2,-,N/A,,Clear,270,2014-04-08 10:15:00
5:35 AM,30.4,25.9,83,30.17,10.0,West,9.2,-,N/A,,Clear,270,2014-04-08 10:35:00
5:55 AM,31.1,25.9,81,30.18,10.0,West,10.4,-,N/A,,Clear,280,2014-04-08 10:55:00
6:15 AM,30.4,25.5,82,30.18,10.0,West,9.2,-,N/A,,Clear,280,2014-04-08 11:15:00
6:35 AM,30.4,25.5,82,30.19,10.0,West,9.2,-,N/A,,Clear,270,2014-04-08 11:35:00
6:55 AM,29.7,25.3,84,30.19,10.0,West,6.9,-,N/A,,Clear,270,2014-04-08 11:55:00
7:15 AM,29.8,25.3,83,30.19,10.0,West,8.1,-,N/A,,Clear,270,2014-04-08 12:15:00
7:35 AM,30.9,26.1,82,30.19,10.0,West,6.9,-,N/A,,Clear,260,2014-04-08 12:35:00
7:55 AM,33.3,27.0,78,30.19,10.0,West,10.4,-,N/A,,Clear,260,2014-04-08 12:55:00
8:15 AM,35.6,27.1,71,30.19,10.0,West,6.9,-,N/A,,Clear,280,2014-04-08 13:15:00
8:35 AM,37.8,28.4,69,30.19,10.0,WNW,5.8,-,N/A,,Clear,300,2014-04-08 13:35:00
8:55 AM,41.7,28.4,59,30.20,10.0,WNW,10.4,-,N/A,,Clear,300,2014-04-08 13:55:00
9:15 AM,43.7,27.7,53,30.21,10.0,NW,11.5,-,N/A,,Clear,310,2014-04-08 14:15:00
9:35 AM,45.9,28.4,51,30.21,10.0,WNW,10.4,-,N/A,,Clear,290,2014-04-08 14:35:00
9:55 AM,48.2,28.8,47,30.21,10.0,WNW,8.1,-,N/A,,Clear,300,2014-04-08 14:55:00
10:15 AM,50.5,28.2,42,30.21,10.0,NW,8.1,-,N/A,,Clear,310,2014-04-08 15:15:00
10:35 AM,52.7,26.6,36,30.21,10.0,NW,9.2,-,N/A,,Clear,320,2014-04-08 15:35:00
10:55 AM,54.5,27.0,35,30.21,10.0,NW,9.2,-,N/A,,Clear,310,2014-04-08 15:55:00
11:15 AM,56.1,27.0,33,30.21,10.0,NW,9.2,-,N/A,,Clear,310,2014-04-08 16:15:00
11:35 AM,57.7,27.5,31,30.21,10.0,WNW,12.7,-,N/A,,Clear,290,2014-04-08 16:35:00
11:55 AM,59.5,28.4,31,30.21,10.0,West,11.5,17.3,N/A,,Clear,280,2014-04-08 16:55:00
12:15 PM,62.2,27.9,27,30.19,10.0,WNW,17.3,21.9,N/A,,Clear,300,2014-04-08 17:15:00
12:35 PM,63.5,28.6,27,30.19,10.0,WNW,18.4,26.5,N/A,,Clear,300,2014-04-08 17:35:00
12:55 PM,66.0,28.8,25,30.17,10.0,NNW,20.7,28.8,N/A,,Clear,340,2014-04-08 17:55:00
1:15 PM,66.7,28.8,24,30.17,10.0,NNW,17.3,27.6,N/A,,Scattered Clouds,340,2014-04-08 18:15:00
1:35 PM,66.9,28.9,24,30.16,10.0,North,24.2,29.9,N/A,,Clear,350,2014-04-08 18:35:00
1:55 PM,68.7,29.5,23,30.16,10.0,NNW,21.9,32.2,N/A,,Clear,330,2014-04-08 18:55:00
2:15 PM,68.4,28.8,23,30.15,10.0,NNW,20.7,33.4,N/A,,Clear,340,2014-04-08 19:15:00
2:35 PM,68.9,29.5,23,30.15,10.0,NW,26.5,33.4,N/A,,Clear,320,2014-04-08 19:35:00
2:55 PM,69.1,28.8,22,30.14,10.0,NNW,16.1,34.5,N/A,,Clear,340,2014-04-08 19:55:00
3:15 PM,69.1,29.8,23,30.13,10.0,NNW,24.2,27.6,N/A,,Clear,330,2014-04-08 20:15:00
3:35 PM,69.6,28.6,22,30.12,10.0,North,20.7,31.1,N/A,,Clear,350,2014-04-08 20:35:00
3:55 PM,70.2,29.7,22,30.12,10.0,NNW,18.4,26.5,N/A,,Clear,340,2014-04-08 20:55:00
4:15 PM,69.4,29.1,22,30.12,10.0,NW,18.4,28.8,N/A,,Clear,320,2014-04-08 21:15:00
4:35 PM,69.1,29.7,23,30.12,10.0,NNW,9.2,26.5,N/A,,Clear,340,2014-04-08 21:35:00
4:55 PM,69.6,30.2,23,30.12,10.0,North,17.3,23.0,N/A,,Clear,350,2014-04-08 21:55:00
5:15 PM,69.8,31.3,24,30.11,10.0,NNW,13.8,20.7,N/A,,Clear,330,2014-04-08 22:15:00
5:35 PM,69.8,29.5,22,30.11,10.0,NW,17.3,25.3,N/A,,Clear,320,2014-04-08 22:35:00
5:55 PM,69.8,30.4,23,30.11,10.0,NNW,13.8,-,N/A,,Clear,340,2014-04-08 22:55:00
6:15 PM,69.6,29.8,23,30.11,10.0,North,17.3,23.0,N/A,,Clear,360,2014-04-08 23:15:00
6:35 PM,68.9,30.7,24,30.11,10.0,North,11.5,-,N/A,,Clear,360,2014-04-08 23:35:00
6:55 PM,68.2,30.2,24,30.12,10.0,North,11.5,-,N/A,,Clear,360,2014-04-08 23:55:00
7:15 PM,67.1,29.8,25,30.12,10.0,NNE,6.9,-,N/A,,Clear,20,2014-04-09 00:15:00
7:35 PM,65.5,31.3,28,30.12,10.0,NE,4.6,-,N/A,,Clear,50,2014-04-09 00:35:00
7:55 PM,62.2,32.0,32,30.12,10.0,NE,5.8,-,N/A,,Clear,50,2014-04-09 00:55:00
8:15 PM,60.4,30.6,32,30.12,10.0,ENE,6.9,-,N/A,,Clear,70,2014-04-09 01:15:00
8:35 PM,56.7,30.4,37,30.12,10.0,East,5.8,-,N/A,,Clear,80,2014-04-09 01:35:00
8:55 PM,55.6,29.5,37,30.14,10.0,ESE,6.9,-,N/A,,Clear,110,2014-04-09 01:55:00
9:15 PM,55.0,29.5,38,30.14,10.0,ESE,8.1,-,N/A,,Clear,110,2014-04-09 02:15:00
9:35 PM,53.8,28.8,38,30.15,10.0,ESE,6.9,-,N/A,,Clear,110,2014-04-09 02:35:00
9:55 PM,53.8,28.9,39,30.14,10.0,ESE,8.1,-,N/A,,Clear,110,2014-04-09 02:55:00
10:15 PM,50.2,28.2,43,30.15,10.0,ESE,9.2,-,N/A,,Clear,120,2014-04-09 03:15:00
10:35 PM,48.4,28.2,46,30.14,10.0,SE,9.2,-,N/A,,Clear,130,2014-04-09 03:35:00
10:55 PM,46.0,27.7,49,30.14,10.0,SE,8.1,-,N/A,,Clear,140,2014-04-09 03:55:00
11:15 PM,42.1,27.5,56,30.14,10.0,SSE,8.1,-,N/A,,Clear,150,2014-04-09 04:15:00
11:35 PM,41.5,27.5,57,30.14,10.0,SSE,9.2,-,N/A,,Clear,160,2014-04-09 04:35:00
11:55 PM,42.1,28.2,58,30.14,10.0,South,9.2,-,N/A,,Clear,170,2014-04-09 04:55:00